{"data":{"norad_id":39160,"intl_designator":"2013-021B","name":"VNREDSAT 1","alt_names":[],"object_type":"PAYLOAD","status":"ACTIVE","operator":null,"country":"VTNM","launch_date":"2013-05-07","launch_site_code":"FRGUI","launch_vehicle":null,"mission":null,"orbit_class":"UNKNOWN","rcs_meters":0.7405,"size_class":null,"mass_kg":null,"dimensions":null,"purposes":["earth_obs"],"wikipedia_slug":null,"has_3d_model":false,"image_url":null,"decayed_at":null,"tle_current":{"epoch":"2026-05-25T04:56:33.489888Z","epoch_age_seconds":50406,"freshness":"FRESH","line1":"1 39160U 13021B   26145.20594317  .00000464  00000+0  95348-4 0  9991","line2":"2 39160  97.9092 199.5034 0001496  97.5612 262.5761 14.64828339696927","mean_motion":14.64828339,"eccentricity":0.0001496,"inclination_deg":97.9092,"raan_deg":199.5034,"arg_perigee_deg":97.5612,"mean_anomaly_deg":262.5761,"bstar":9.5348e-5,"rev_number":69692,"period_min":98.305034225584,"perigee_km":676.57101784989,"apogee_km":678.68210230707,"semimajor_km":7055.7635600785,"source":"CELESTRAK","updated_at":"2026-05-25T13:38:12.782282Z"}}}